html hit counter

Jackpot

Texas Poker Multi Jackpot System

Kini Telah hadir Jackpot SUPER ROYAL FLUSH

Kini Telah hadir Jackpot 2000 (khusus table VIP keatas).

Ikutilah global jackpot yang tersedia di system kami, dengan system jackpot terbaru dan pertama di indonesia, anda dapat membeli jackpot dengan harga 100 rupiah saja dan menangkan hadiahnya hingga puluhan juta rupiah.

Jackpot bukanlah suatu keharusan untuk dibeli, namun kami memberikan suatu fitur tambahan untuk member tercinta dari www.pokersemi.net.

Terdapat tiga pilihan harga jackpot yang bisa anda beli yaitu :100,500,1000 dan 2000(khusus table VIP Keatas) rupiah.

Hadiah dari Multi jackpot system www.pokersemi.net

  1. full house x 10 harga jackpot yang anda beli.
      (contoh:anda membeli 1000 maka:1000 X10 = 10.000)
  2. four of kind x 250 harga jackpot yang anda beli
      (contoh:anda membeli 1000 maka:1000 X250 = 250.000)
  3. Straight flush x 1200
      (contoh:anda membeli 1000 maka:1000 X1200 = 1.200.000)
  4. Royal flush x 10000 harga jackpot yang anda beli
      (contoh:anda membeli 1000 maka:1000 X10000 = 10.000.000)
  5. SUPER ROYAL FLUSH x 30000 harga jackpot yang anda beli
      (contoh:anda membeli 1000 maka:1000 X30000 = 30.000.000)

Kondisi kartu

  1. full house adalah kondisi kartu dimana kartu anda dan kartu tengah dengan total 7 kartu bisa mendapatkan nilai 5 kartu dengan kombinasi 1 tris(three of kind) dan 1 pair, contoh 3 kartu 10 dan 2 kartu 5
  2. Four of kind adalah kondisi kartu dimana kartu anda dan kartu tengah dengan total 7 kartu bisa mendapatkan nilai 5 kartu dengan kombinasi 4 kartu yang sama jumlah dan 1 kartu apapun juga contoh anda mendapatkan 4 buah kartu angka 3 dan 1 kartu apapun.
  3. Staright flush adalah kondisi kartu dimana kartu anda dan kartu tengah dengan total 7 kartu bisa mendapatkan nilai 5 kartu dengan kombinasi seri / staright dengan kembang yang sama contoh : urutan kartu dari angka 5, 6, 7, 8 , 9 10 dengan kembang yg sama misalnya as hati
  4. Royal flush adalah kondisi kartu dimana kartu anda dan kartu tengah dengan total 7 kartu bisa mendapatkan nilai 5 kartu dengan kombinasi seri / staright dengan kembang yang sama tetapi kartu tersebut haruslah dimulai dari 10. contoh 10, Queen, Jack, King dan aces dengan kembang yang sama
  5. Super Royal flush adalah kondisi kartu dimana Kedua kartu anda digabung dengan 3 kartu pertama meja haruslah royal flush. contoh kartu anda 10,Queen kembang sama dan 3 kartu pertama meja adalah Jack, King dan aces dengan kembang yang sama

Demikian adalah penjelasan dari Multi Jackpot www.pokersemi.net terima kasih dan selamat bermain salam hoki dari kami

Texas Poker Jackpot Winner

TOP SUPER ROYAL FLUSH
No.TanggalNamaPriceWin
121/09 14:11ROYALJOZZSuper Royal flush60,000,000
221/09 13:43BA_ATIYOSuper Royal flush6,000,000
321/09 12:23B8EKCBJIYMSuper Royal flush3,000,000
421/09 08:32TUPO25Super Royal flush3,000,000
521/09 07:21SLOME898Super Royal flush30,000,000
TOP ROYAL FLUSH
No.TanggalNamaPriceWin
122/09 00:23GRUFFINZ1Royal flush2,000,000
222/09 00:23UG7YXT7Z4HRoyal flush5,000,000
322/09 00:20PSSI21Royal flush2,000,000
422/09 00:10MUSTA_JABRoyal flush5,000,000
522/09 00:10NURBAYA0Royal flush1,000,000
TOP STRAIGHT FLUSH
No.TanggalNamaPriceWin
122/09 00:19LGTS5Straight Flush120,000
222/09 00:18PRORONGA12Straight Flush120,000
322/09 00:18CC3C8F22Straight Flush1,200,000
422/09 00:18BOBY_BOMBSStraight Flush240,000
522/09 00:17AINKBERUKStraight Flush1,200,000
LATEST JACKPOT
No.TanggalNamaPriceWin
122/09 00:23GRUFFINZ1Royal flush2,000,000
222/09 00:23BARONGANKAFull House10,000
322/09 00:23SEDOTTSFull House10,000
422/09 00:23S0T0YFull House5,000
522/09 00:23SMOOTH93Full House10,000
622/09 00:23LOLOX19Full House5,000
722/09 00:23MAWARAJAFull House10,000
822/09 00:23NASIB9Full House500
922/09 00:23BD248734Full House2,000
1022/09 00:23PING_WINFull House2,000
1122/09 00:23QUENKING69Full House10,000
1222/09 00:23BK3879Full House5,000
1322/09 00:23KONI0410Full House10,000
1422/09 00:23ZWW4D6NB70Full House10,000
1522/09 00:23ANTOJENGFull House2,000
1622/09 00:23AM79Full House2,000
1722/09 00:23JACKBOUW1Full House20,000
1822/09 00:23REREE27Full House2,000
1922/09 00:23BAGIANGALOFull House5,000
2022/09 00:23G0G090Full House2,000
2122/09 00:23UG7YXT7Z4HRoyal flush5,000,000
2222/09 00:23YAMO345Full House2,000
2322/09 00:23MADONA71Full House5,000
2422/09 00:23IWANPRASFull House5,000
2522/09 00:23HOKAGE78Full House5,000
2622/09 00:23DONJUANFull House1,000
2722/09 00:22KUPU022Full House2,000
2822/09 00:22R0OSIIOKL3Full House1,000
2922/09 00:22DJ3933RFull House2,000
3022/09 00:22COL2Full House1,000
3122/09 00:22DAVAAPJUNAFull House5,000
3222/09 00:22CENGOS1212Full House5,000
3322/09 00:22KARKAS88Full House1,000
3422/09 00:22U0HP7WRVP3Full House2,000
3522/09 00:22D4N15HFull House5,000
3622/09 00:22BACOK777Full House10,000
3722/09 00:22FEY24Four Of A Kind125,000
3822/09 00:22KORKET13Full House2,000
3922/09 00:22GEMPAR36Full House10,000
4022/09 00:22GEMPIL21Full House5,000
4122/09 00:22MAGNUM2201Full House2,000
4222/09 00:22GYHGHFour Of A Kind50,000
4322/09 00:22BACUM46Full House1,000
4422/09 00:22SAEASFull House20,000
4522/09 00:22S1D199Full House5,000
4622/09 00:22B40EWO826Full House2,000
4722/09 00:22WADJIFull House10,000
4822/09 00:22DEVSAN86Full House10,000
4922/09 00:22FIRAUUN888Full House1,000
5022/09 00:22MONCOZ57Full House5,000

Domino Multi Jackpot System

Ikutilah global jackpot yang tersedia di system kami, dengan system jackpot terbaru dan pertama di indonesia, anda dapat membeli jackpot dengan harga 100 rupiah saja dan menangkan hadiahnya hingga puluhan juta rupiah.

Jackpot bukanlah suatu keharusan untuk dibeli, namun kami memberikan suatu fitur tambahan untuk member tercinta dari www.pokersemi.net.

Terdapat tiga pilihan harga jackpot yang bisa anda beli yaitu :100,500 dan 1000 rupiah.

Hadiah dari Multi jackpot system www.pokersemi.net

  1. Murni Kecil x 50 harga jackpot yang anda beli.
      (contoh:anda membeli 1000 maka:1000 X 50 = 50.000)
  2. Murni Besar x 50 harga jackpot yang anda beli
      (contoh:anda membeli 1000 maka:1000 X 50 = 50.000)
  3. BALAK x 100 harga jackpot yang anda beli
      (contoh:anda membeli 1000 maka:1000 X 100 = 100.000)
  4. ENAM DEWA x 6666 harga jackpot yang anda beli
      (contoh:anda membeli 1000 maka:1000 X 6666 = 6.666.000)

Demikian adalah penjelasan dari Multi Jackpot www.pokersemi.net terima kasih dan selamat bermain salam hoki dari kami

Domino Jackpot Winner

TOP ENAM DEWA
No.TanggalNamaPriceWin
121/09 23:35TEMPE444murni enam666,600
221/09 21:47MORBAG029murni enam3,333,000
321/09 21:27STW79murni enam3,333,000
421/09 21:20FIRMIHmurni enam666,600
521/09 21:02ADUL4444murni enam6,666,000
TOP BALAK
No.TanggalNamaPriceWin
122/09 00:224RAMALbalak10,000
222/09 00:20AHMAD35balak100,000
322/09 00:19HAER333balak100,000
422/09 00:17MERRYJACINbalak100,000
522/09 00:16EEHWEH16balak50,000
LATEST JACKPOT
No.TanggalNamaPriceWin
122/09 00:23T212BOM99murni besar5,000
222/09 00:23AJASHmurni kecil25,000
322/09 00:23ADEKBDlucky9925,000
422/09 00:22NIW5MJ545Pmurni kecil50,000
522/09 00:22BIGWIN_murni besar50,000
622/09 00:224RAMALbalak10,000
722/09 00:22NARAGUJ303murni kecil50,000
822/09 00:22BP888002murni kecil50,000
922/09 00:22EHBANGBENGmurni kecil5,000
1022/09 00:21SAMEN23murni kecil5,000
1122/09 00:21AJASHmurni kecil25,000
1222/09 00:21TARAUPmurni kecil50,000
1322/09 00:20M1RZ4NIlucky992,500
1422/09 00:20AMSEO99murni kecil25,000
1522/09 00:20SAPI1978murni kecil50,000
1622/09 00:20GRANDONG96murni kecil50,000
1722/09 00:20AHMAD35balak100,000
1822/09 00:20R1JWNM8F74murni besar50,000
1922/09 00:20TONO757murni kecil5,000
2022/09 00:19WIRA878murni besar50,000
2122/09 00:19HAER333balak100,000
2222/09 00:19NARAGUJ303murni kecil50,000
2322/09 00:18TOMTRGmurni kecil5,000
2422/09 00:17BLUELINK77murni kecil50,000
2522/09 00:17MERRYJACINbalak100,000
2622/09 00:16TOMTRGmurni besar5,000
2722/09 00:16E380B203lucky992,500
2822/09 00:16EEHWEH16balak50,000
2922/09 00:16LUEPOEmurni besar25,000
3022/09 00:15JPWINNER87murni kecil50,000
3122/09 00:15SOKIPUNAImurni kecil50,000
3222/09 00:15JPWINNER87murni kecil50,000
3322/09 00:14GONDEL06murni kecil5,000
3422/09 00:14RIZKYP90murni besar5,000
3522/09 00:14SAPI1978murni kecil50,000
3622/09 00:14LMBROSSObalak100,000
3722/09 00:11THEDOIbalak100,000
3822/09 00:10AALAALmurni kecil25,000
3922/09 00:10SURANDILmurni besar50,000
4022/09 00:10MASISAmurni kecil50,000
4122/09 00:09SARPRAS123balak100,000
4222/09 00:09MJS99murni besar25,000
4322/09 00:09HAIDAR11murni besar50,000
4422/09 00:08BLEDEG99lucky9910,000
4522/09 00:08EGHY22balak100,000
4622/09 00:08PAJADIK033balak50,000
4722/09 00:08JUTAWAN1balak10,000
4822/09 00:07A559FAE1lucky992,500
4922/09 00:07CEKIHC0Ymurni kecil5,000
5022/09 00:07TINTAMAS88murni kecil25,000

Ceme Multi Jackpot System

Jackpot dilihat dari gabungan kartu pemain dengan kartu bandar. Bandar harus membeli jackpot sebanyak jumlah player yang sedang duduk. Sebagai contoh bila terdapat 3 pemain duduk bermain, dan bandar memutuskan untuk membeli jackpot Rp 1.000, maka pada periode tersebut bandar akan membeli jackpot sebanyak 3xRp1.000 = Rp3.000.

Jackpot bukanlah suatu keharusan untuk dibeli, namun kami memberikan suatu fitur tambahan untuk member tercinta dari www.pokersemi.net.

Terdapat tiga pilihan harga jackpot yang bisa anda beli yaitu :100,500 dan 1000 rupiah.

Hadiah dari Multi jackpot system www.pokersemi.net

  1. Murni Kecil x 50 harga jackpot yang anda beli.
      (contoh:anda membeli 1000 maka:1000 X 50 = 50.000)
  2. Murni Besar x 50 harga jackpot yang anda beli
      (contoh:anda membeli 1000 maka:1000 X 50 = 50.000)
  3. BALAK x 200 harga jackpot yang anda beli
      (contoh:anda membeli 1000 maka:1000 X 200 = 200.000)
  4. ENAM DEWA x 6666 harga jackpot yang anda beli
      (contoh:anda membeli 1000 maka:1000 X 6666 = 6.666.000)

Demikian adalah penjelasan dari Multi Jackpot www.pokersemi.net terima kasih dan selamat bermain salam hoki dari kami

Ceme Jackpot Winner

TOP ENAM DEWA
No.TanggalNamaPriceWin
122/09 00:13SANUR123murni enam6,666,000
222/09 00:13MATABIRUmurni enam6,666,000
322/09 00:12PLM1888murni enam6,666,000
422/09 00:12SUN666murni enam3,333,000
521/09 23:53C53ANK626murni enam3,333,000
TOP BALAK
No.TanggalNamaPriceWin
122/09 00:23GINTINGTINbalak200,000
222/09 00:23GINTINGTINbalak200,000
322/09 00:23SUHUTNIHUTbalak200,000
422/09 00:23AAPATONIbalak200,000
522/09 00:23WILDANSYAHbalak200,000
LATEST JACKPOT
No.TanggalNamaPriceWin
122/09 00:23GINTINGTINbalak200,000
222/09 00:23GINTINGTINbalak200,000
322/09 00:23SUHUTNIHUTbalak200,000
422/09 00:23ARV0510murni besar25,000
522/09 00:23ARIEKA49murni besar50,000
622/09 00:23AAPATONIbalak200,000
722/09 00:23WILDANSYAHbalak200,000
822/09 00:23TEST99murni kecil50,000
922/09 00:23KOBOY39murni kecil5,000
1022/09 00:23IBI766murni besar50,000
1122/09 00:23DB88D508murni kecil25,000
1222/09 00:23DB88D829murni kecil50,000
1322/09 00:23CEPET881murni kecil25,000
1422/09 00:23POKERO1001murni besar50,000
1522/09 00:23AIMEmurni besar50,000
1622/09 00:23HAIPOKER2murni besar25,000
1722/09 00:23SAKAU_CEMEmurni kecil50,000
1822/09 00:23JINDANJU5murni kecil50,000
1922/09 00:23YAH0O_08murni kecil50,000
2022/09 00:22DINO1509murni kecil50,000
2122/09 00:22SUMARNA889murni kecil50,000
2222/09 00:22ACEOFBETmurni besar50,000
2322/09 00:22AYIAYAbalak200,000
2422/09 00:22JIMZ77murni besar50,000
2522/09 00:22IWAN007murni kecil50,000
2622/09 00:22AJOPIAMAN1murni kecil50,000
2722/09 00:22BONIALGOJAmurni kecil50,000
2822/09 00:22WIIRYO1234murni kecil50,000
2922/09 00:22KOKOROKO28murni besar50,000
3022/09 00:22WINNER1199murni kecil50,000
3122/09 00:22HE8MPWKVEDmurni kecil50,000
3222/09 00:22NAZZ20balak200,000
3322/09 00:22DONIYATImurni besar5,000
3422/09 00:21DENGGEL99balak200,000
3522/09 00:21GOGO79balak200,000
3622/09 00:21IPHONE_MAXmurni besar50,000
3722/09 00:21SAUDIAMELmurni besar50,000
3822/09 00:21SELARAS1balak200,000
3922/09 00:21SAKEMATTbalak200,000
4022/09 00:21GUNDUL2020balak200,000
4122/09 00:21K0J4N6balak100,000
4222/09 00:21BUN9SU79murni kecil50,000
4322/09 00:217055murni besar50,000
4422/09 00:21G333MBULbalak200,000
4522/09 00:21HAMI1212murni kecil50,000
4622/09 00:21WHYU888murni kecil50,000
4722/09 00:21MASTUTICLBmurni kecil50,000
4822/09 00:21ADULBEDUL9murni kecil50,000
4922/09 00:21FOF101balak200,000
5022/09 00:21BANGRAHMADbalak200,000